STARLINK-30594, 58097

Orbit data source: Space-Track

STARLINK-30594, 58097 is a payload satellite owned by SpaceX/Seattle (US) in LEO that was launched on Sat, 21 Oct 2023 UTC via an FALCON 9 launch vehicle from the Air Force Western Test Range (AFWTR). Payload-class satellites include a variety of spacecraft equipped with specific instruments for various scientific and technological missions. These include communications satellites like Starlink; space stations such as the ISS; scientific satellites like the Hubble; Earth observation satellites from companies like Planet Labs, Umbra, and HawkEye 360; GPS; miniature CubeSats for education and research; and military/defense satellites.

Loading next visibility...
Identifier
58097, 2023-161A
Orbit
LEO
Country
Flag of USUS
Related business
Manufacturer
SpaceX/Seattle
Mission
Operational Commercial Communications
Bus & Motor
STARLINK V2M, Unknown motor
Mass
730 kg wet, ~700 kg dry
Launch date (UTC)
2023-10-21 (3 years ago)
Launch vehicle
FALCON 9
Launch site
Air Force Western Test Range (AFWTR)
Object type
Payload
Rocket body
Debris
Shape & HBR
Box + 2 Pan, 17.7 m
Radar Cross Section
33.884 m², Large (>1 m²)

Expand to show TLE details & history
Last TLE update: 2 days ago

TLE from 2 days ago
0 STARLINK-30594
1 58097U 23161A   26171.35477236  .00000584  00000-0  28408-4 0  9999
2 58097  53.1623  48.4149 0001263  69.5177 290.5961 15.34399557150142
Epoch: 2026-06-20T08:30Z
TLE epoch observation values (Epoch: 2026-06-20T08:30:52.331Z)
Latitude
-0.00005°
Longitude
12.12622°
Altitude
463.302 km
Speed
7.636 km/s
True Right ascension
03h 13m 39s
True Declination
0° 00' 00"
Sunlit
Object was in daylight at epoch
Visualization orbit readout
Latitude
Unknown
Longitude
Unknown
Altitude
Unknown
Speed
Unknown
Apparent Right ascension
Unknown
Apparent Declination
Unknown
Sunlit
N/A
Visualization observer readout
Local Sidereal Time
21:27:42
Azimuth
Unknown
Elevation
Unknown
Doppler factor
Unknown
Orbital elements
Apogee altitude
463.825 km
Perigee altitude
462.097 km
Semi-major axis
6,841.098 km
Eccentricity
0.00013
Inclination
53.1623°
RAAN
48.4149°
Arg. of periapsis
69.5177°
True anomaly
290.58255°
Mean anomaly
290.5961°
Eccentric anomaly
290.58933°
Mean motion
3.83579 °/min
Orbital period
93.85 mins
BSTAR
0.000028408
Loading maneuver chart data...
Computing Atmospheric mass density...
Loading historical data...
Loading historical data...
Loading historical data...
Loading historical data...
Loading historical data...
Loading historical data...
Loading historical data...

Documentation

Showing up to 5 results
|